Location: College Park
(38.9810°N, 76.9370°W)
Time: 16:46:14

N. Korean satellite - Pass Details

Date: 09 January 2018
Orbit: 460 x 512 km, 97.2° (Epoch: 21 March)

Event Time Altitude Azimuth Distance (km) Brightness Sun altitude
Rises 18:33:41 0° 186° (S) 2,602 10.5 -17.1°
Reaches altitude 10° 18:35:54 10° 195° (SSW) 1,716 9.7 -17.5°
Maximum altitude 18:39:18 34° 262° (W) 837 8.4 -18.2°
Drops below altitude 10° 18:42:42 10° 329° (NNW) 1,705 9.5 -18.8°
Sets 18:44:54 0° 339° (NNW) 2,584 10.4 -19.2°
